www.pogodaiklimat.ru

Погода и климат >> Архив погоды >> Сенегал >> Kolda


ПОГОДА в Kolda

  • Прогноз погоды в Kolda
  • Монитор погоды в Kolda
  • Климат города

АРХИВ ПОГОДЫ в Kolda

Время (UTC), дата Ветер
(напр.,м/с)
 
Видим.   Явления Облачность Т
(С)
Тd
(С)
f
(%)
Тe
(С)
Тes
(С)
Комфортность P
(гПа)
Po
(гПа)
Тmin
(С)
Tmax
(С)
R
(мм)
R24
(мм)
S
(см)
18 10.12 штиль 0 10 км ясно +31.5 +21.7 56 +40 +40 очень
душно
1011.7 1010.6 +35.0
21 10.12 штиль 0 8000 м ясно +20.8 +18.7 88 +25 +25 комфорт 1013.8 1012.7
00 11.12 штиль 0 8000 м ясно +17.8 +16.8 94 +18 +18 1014.6 1013.5
06 11.12 штиль 0 8000 м ясно +13.3 +13.3 100 +13 +13 1013.5 1012.4 +13.0
09 11.12 штиль 0 10 км 3/0
[Ci fib]
+20.2 +17.8 86 +23 +27 комфорт 1014.7 1013.6
12 11.12 В 2 10 км 3/0
[Ci fib]
+32.0 +18.2 44 +37 +49 очень
душно
1014.5 1013.4
15 11.12 В 1 10 км ясно +35.0 +19.3 40 +40 +52 опасность
солнечного
удара
1011.1 1010.0
18 11.12 штиль 0 10 км ясно +33.5 +18.3 41 +38 +39 очень
душно
1011.0 1009.9 +36.5
21 11.12 штиль 0 8000 м ясно +20.5 +17.0 80 +24 +24 комфорт 1012.3 1011.2
00 12.12 штиль 0 8000 м ясно +17.2 +15.9 92 +17 +17 1012.7 1011.6
03 12.12 штиль 0 8000 м ясно +14.6 +13.9 96 +14 +14 1012.4 1011.3
06 12.12 штиль 0 8000 м ясно +12.7 +12.5 99 +12 +12 1012.1 1011.0 +12.2
09 12.12 штиль 0 10 км 5/0
[Ci sp]
+17.8 +15.6 87 +18 +21 1013.1 1012.0
15 12.12 В 2 10 км 4/0
[Ci sp]
+36.0 +19.7 39 +42 +51 опасность
перегрева
1010.2 1009.1
18 12.12 штиль 0 10 км 8/0
[Ci sp]
+33.0 +22.0 52 +41 +42 опасность
перегрева
1010.0 1009.9 +36.6
21 12.12 штиль 0 8000 м 4/0
[Ci sp]
+20.8 +18.7 88 +25 +25 комфорт 1012.2 1011.1
00 13.12 штиль 0 8000 м 4/0
[Ci sp]
+18.0 +17.2 95 +18 +18 1012.8 1011.7
06 13.12 штиль 0 8000 м 4/0
[Ci sp]
+15.0 +15.0 100 +15 +15 1012.5 1011.4 +14.2
09 13.12 В 1 10 км 6/0
[Ci sp]
+18.5 +16.9 90 +20 +23 1013.5 1012.4
12 13.12 СВ 1 10 км 6/0
[Ci sp]
+31.0 +17.7 45 +35 +49 очень
душно
1013.5 1012.4
15 13.12 В 2 10 км 6/0
[Ci sp]
+36.0 +26.2 57 +52 +61 опасность
перегрева
1011.6 1010.5
18 13.12 штиль 0 10 км 5/0
[Ci sp]
+32.0 +22.5 57 +41 +42 опасность
перегрева
1011.4 1010.3 +36.2
21 13.12 штиль 0 8000 м 6/0
[Ci sp]
+23.0 +20.7 87 +30 +30 очень
душно
1012.9 1011.8
00 14.12 штиль 0 8000 м 6/0
[Ci sp]
+21.0 +20.5 97 +26 +26 душно 1012.4 1012.3
03 14.12 штиль 0 8000 м 6/0
[Ci sp]
+21.0 +20.5 97 +26 +26 душно 1013.5 1012.4
06 14.12 штиль 0 8000 м 6/0
[Ci sp]
+19.0 +18.7 98 +21 +21 комфорт 1013.3 1012.2 +18.5
09 14.12 штиль 0 10 км 9/0
[Ac trans]
+22.4 +20.3 88 +29 +31 очень
душно
1014.3 1013.2
12 14.12 В 3 10 км 9/0
[Ac As]
+30.6 +19.0 50 +36 +40 очень
душно
1015.1 1014.0
15 14.12 В 3 10 км 8/0
[Ac cast]
+33.0 +18.0 41 +37 +41 очень
душно
1013.0 1011.9
18 14.12 штиль 0 10 км 9/0
[Ac As]
+30.0 +22.8 65 +40 +40 очень
душно
1012.8 1011.7 +34.5
21 14.12 штиль 0 8000 м 9/0
[Ac As]
+24.0 +21.6 86 +31 +31 очень
душно
1014.2 1013.1
00 15.12 штиль 0 8000 м 9/0
[Ac As]
+23.0 +22.1 95 +31 +31 очень
душно
1015.9 1014.8
03 15.12 штиль 0 8000 м 9/0
[Ac As]
+22.0 +21.2 95 +28 +28 душно 1015.2 1014.1
06 15.12 В 2 8000 м 9/0
[Ac As]
+23.0 +15.6 63 +27 +27 душно 1015.1 1014.0 +22.0
09 15.12 В 2 10 км 6/0
[Ac trans]
+25.0 +16.1 58 +28 +30 жарко 1016.2 1015.1
12 15.12 В 5 10 км 4/0
[Ac trans]
+32.6 +19.4 46 +38 +43 очень
душно
1015.5 1014.4
15 15.12 В 3 10 км 3/0
[Ac trans]
+35.2 +21.4 45 +43 +50 опасность
перегрева
1014.5 1013.4
18 15.12 В 1 10 км 4/0
[Ac trans]
+33.5 +21.0 48 +41 +41 опасность
перегрева
1013.9 1012.8 +35.7
21 15.12 штиль 0 8000 м 6/0
[Ac As]
+24.8 +17.1 62 +29 +29 душно 1015.4 1014.3
00 16.12 В 2 8000 м 6/0
[Ac As]
+23.5 +22.8 96 +31 +31 очень
душно
1016.1 1015.0
03 16.12 В 1 8000 м 6/0
[Ac As]
+22.6 +22.0 96 +30 +30 очень
душно
1015.8 1014.5
06 16.12 штиль 0 8000 м 8/0
[Ac As]
+16.0 +11.4 74 +16 +16 1015.3 1014.2 +15.5
09 16.12 В 2 10 км 3/0
[Ac trans]
+22.0 +12.6 55 +25 +27 комфорт 1016.2 1015.1
12 16.12 В 3 10 км 3/0
[Ac trans]
+31.0 +16.9 43 +35 +44 очень
душно
1016.2 1015.1
15 16.12 В 3 10 км ясно +35.0 +17.9 36 +39 +47 очень
душно
1012.2 1011.1
18 16.12 В 1 10 км ясно +32.8 +17.7 41 +37 +37 очень
душно
1012.4 1011.3 +35.2
21 16.12 штиль 0 8000 м ясно +21.0 +16.1 74 +24 +24 комфорт 1013.8 1012.7
00 17.12 штиль 0 8000 м ясно +17.5 +14.9 85 +17 +17 1014.5 1013.4
03 17.12 С 3 8000 м ясно +19.4 +16.4 83 +22 +22 комфорт 1015.8 1015.3
06 17.12 штиль 0 8000 м ясно +13.4 +12.3 93 +13 +13 1013.9 1012.8 +13.0
09 17.12 В 2 10 км ясно +21.0 +13.0 60 +24 +27 комфорт 1015.3 1014.2
12 17.12 В 3 10 км ясно +32.0 +15.8 38 +35 +46 очень
душно
1014.3 1013.2
15 17.12 В 2 10 км ясно +35.0 +18.3 37 +39 +49 очень
душно
1012.1 1011.0

 

Местоположение метеостанции Kolda (Сенегал): широта 12.88 долгота -14.96 высота над уровнем моря 10 м.

В архиве по умолчанию представлена погода в Kolda за последнюю неделю. Архивные данные за месяц целиком и за предыдущие месяцы, начиная с января 2011 года, Вы можете получить, выбрав интересующий диапазон дат из раскрывающегося списка и нажав кнопку "Ввод!".


*Определитесь, кто Вы:
робот инопланетянин человек

Внимание! Время в таблицах - всемирное. Для получения местного времени необходимо прибавить поправку, которая в Kolda равна 0 ч.

Смотрите также архив погоды в соседних городах и на ближайших метеорологических станциях:

Погода в Georgetown (Гамбия) (75 км)
Погода в Bafata (Гвинея-Биссау) (85 км)
Погода в Basse (Гамбия) (89 км)
Погода в Jenoi (Гамбия) (94 км)
Погода в Kauur (Гамбия) (100 км)
Погода в Sapu (Гамбия) (130 км)
Погода в Bissau (Гвинея-Биссау) (132 км)
Погода в Sibanor (Гамбия) (140 км)
Погода в Kerewan (Гамбия) (140 км)
Погода в Ziguinchor (Сенегал) (146 км)

Пояснения к столбцам:

Ветер - указаны скорость ветра в м/с - средняя за 10 мин, порывы в срок и между сроками (в фигурных скобках) и направление, откуда дует ветер: С - северный, СВ - северо-восточный, В - восточный, ЮВ - юго-восточный, Ю - южный, ЮЗ - юго-западный, З - западный, СЗ - северо-западный.
Видимость - горизонтальная дальность видимости в метрах или километрах. При видимости от 1 до 10 км при отсутствии осадков обычно наблюдается дымка, при ухудшении видимости до 1 км и менее - туман. В сухую погоду видимость может ухудшаться дымом, пылью или мглою.
Явления - указаны атмосферные явления, наблюдавшиеся в срок или в последний час перед сроком; фигурными скобками обозначены явления, наблюдавшиеся между сроками (за 1-3 часа до срока); квадратными скобками обозначены град или гололедные отложения с указанием их диаметра в мм.
Облачность - указаны через наклонную черту общая и нижняя облачность в баллах и высота нижней границы облаков в метрах; квадратными скобками обозначены формы облаков: Ci - перистые, Cs - перисто-слоистые, Cc - перисто-кучевые, Ac - высококучевые, As - высокослоистые, Sc - слоисто-кучевые, Ns - слоисто-дождевые, Cu - кучевые, Cb - кучево-дождевые. Подробнее классификацию облаков см. в Атласе облаков (PDF).
T - Температура воздуха - температура, измеренная на высоте 2 м над землей.
Td - Температура точки росы - температура, при понижении до которой содержащийся в воздухе водяной пар достигнет насыщения.
f - Относительная влажность воздуха - влажноcть воздуха, измеренная на высоте 2 м над землей.
Te - Эффективная температура - температура, которую ощущает одетый по сезону человек в тени. Характеристика душности погоды. При расчете учитывается влияние влажности воздуха и скорости ветра на теплоощущения человека.
Tes - Эффективная температура на солнце - температура, которую ощущает человек, с поправкой на солнечный нагрев. Характеристика знойности погоды. Зависит от высоты солнца над горизонтом, облачности и скорости ветра. Ночью, в пасмурную погоду, а также при ветре 12 м/с и более поправка равна нулю.
P - Атмосферное давление - приведенное к уровню моря атмосферное давление.
Po - Атмосферное давление - измеренное на уровне метеостанции атмосферное давление.
Tmin - Минимальная температура - минимум температуры воздуха на высоте 2 м над землей.
Tmax - Максимальная температура - максимум температуры воздуха на высоте 2 м над землей.
R - Количество осадков - Количество выпавших осадков за период времени, мм. При наведении курсора мыши на число - период времени, за который выпало указанное количество осадков.
R24 - Количество осадков - Количество выпавших осадков за 24 часа, мм.
S - Снежный покров - Высота снежного покрова, см. При наведении курсора мыши на число - состояние снежного покрова и степень покрытия местности в баллах.